This demonstration page uses our WeatherBlox Daily Observations layout. Learn more.

38.89511, -77.03637

Hourly Observations for January 9, 2018

Temp ( °F °C ) Dew Point ( °F °C ) Humidity (%) Winds ( mph kmh ) Pressure ( in mb ) Visibility ( mi km ) Precip ( " mm )
12:03 am 00:03 Cloudy 38 3.3 37 2.8 97 97 SSW 8 13 30.09 1019 10 16.0934 0 0
12:52 am 00:52 Cloudy 37 2.8 37 2.8 100 100 Calm 30.11 1020 8 12.87472 0 0
12:57 am 00:57 Mostly Cloudy 37 2.8 36 2.2 96 96 Calm 30.12 1020 8 12.87472 0 0
1:52 am 01:52 Mostly Cloudy 36 2.2 34 1.1 93 93 S 3 6 30.13 1020 7 11.26538 0 0
1:58 am 01:58 Partly Cloudy with Mist and Fog 35 1.7 33 0.6 93 93 S 5 7 30.12 1020 5 8.0467 0 0
2:52 am 02:52 Mostly Clear with Mist and Fog 35 1.7 34 1.1 96 96 S 9 15 30.14 1021 6 9.65604 0 0
3:52 am 03:52 Clear with Mist and Fog 34 1.1 33 0.6 97 97 S 7 11 30.16 1021 6 9.65604 0 0
4:42 am 04:42 Mostly Clear with Mist and Fog 33 0.6 33 0.6 100 100 S 8 13 30.18 1022 2 3.21868 0 0
4:44 am 04:44 Mostly Cloudy with Mist and Fog 33 0.6 33 0.6 100 100 S 9 15 30.18 1022 1 1.60934 0 0
4:47 am 04:47 Mostly Cloudy with Fog 34 1 34 1 100 100 S 9 15 30.18 1022 0.25 0.402335 0 0
4:49 am 04:49 Mostly Cloudy with Fog 34 1 34 1 100 100 S 8 13 30.18 1022 1 1.60934 0 0
4:52 am 04:52 Mostly Cloudy with Fog 33 0.6 33 0.6 100 100 S 8 13 30.16 1022 1 1.60934 0 0
4:54 am 04:54 Cloudy with Fog 33 0.6 33 0.6 100 100 S 8 13 30.18 1022 1 1.60934 0 0
5:09 am 05:09 Mostly Cloudy with Fog 34 1.1 34 1.1 100 100 S 7 11 30.18 1022 1 1.60934 0 0
5:50 am 05:50 Cloudy with Fog 34 1 34 1 100 100 SSW 5 7 30.18 1022 1 1.60934 0 0
5:52 am 05:52 Cloudy with Fog 33 0.6 33 0.6 100 100 SSW 5 7 30.19 1022 1 1.60934 0 0
6:52 am 06:52 Cloudy with Freezing Fog 32 0 32 0 100 100 S 6 9 30.21 1023 1 1.60934 0 0
7:04 am 07:04 Mostly Cloudy with Fog 32 0 32 0 100 100 S 5 7 30.21 1023 1 1.60934 0 0
7:52 am 07:52 Mostly Cloudy with Freezing Fog 31 -0.6 31 -0.6 100 100 S 6 9 30.22 1023 1 1.60934 0 0
8:04 am 08:04 Partly Cloudy with Freezing Fog 31 -0.6 31 -0.6 100 100 SSE 5 7 30.21 1023 0.25 0.402335 0 0
8:17 am 08:17 Partly Cloudy with Freezing Fog 31 -0.6 31 -0.6 100 100 SSW 3 6 30.24 1024 0.5 0.80467 0 0
8:49 am 08:49 Mostly Cloudy with Freezing Fog 30 -1 30 -1 100 100 S 9 15 30.24 1024 1 1.60934 0 0
8:52 am 08:52 Mostly Cloudy with Freezing Fog 31 -0.6 31 -0.6 100 100 S 9 15 30.24 1024 1 1.60934 0 0
9:01 am 09:01 Mostly Cloudy with Freezing Fog 31 -0.6 31 -0.6 100 100 S 12 19 30.24 1024 1 1.60934 0 0
9:52 am 09:52 Mostly Cloudy with Fog 32 0 32 0 100 100 S 6 9 30.27 1025 1 1.60934 0 0
10:06 am 10:06 Mostly Cloudy with Fog 33 0.6 33 0.6 100 100 SSW 5 7 30.27 1025 1 1.60934 0 0
10:08 am 10:08 Mostly Cloudy with Mist and Fog 33 0.6 33 0.6 100 100 SSW 5 7 30.27 1025 0.75 1.207005 0 0
10:11 am 10:11 Mostly Cloudy with Mist and Fog 33 0.6 33 0.6 100 100 SSW 5 7 30.27 1025 1 1.60934 0 0
10:17 am 10:17 Mostly Cloudy with Mist and Fog 34 1.1 34 1.1 100 100 SSW 3 6 30.27 1025 2 3.21868 0 0
10:23 am 10:23 Mostly Cloudy with Mist and Fog 34 1.1 34 1.1 100 100 S 3 6 30.27 1025 4 6.43736 0 0
10:52 am 10:52 Mostly Cloudy 36 2.2 35 1.7 97 97 S 7 11 30.28 1025 7 11.26538 0 0
11:52 am 11:52 Mostly Cloudy 37 2.8 37 2.8 100 100 S 7 11 30.26 1025 10 16.0934 0 0
12:52 pm 12:52 Mostly Cloudy 42 5.6 37 2.8 82 82 S 5 7 30.25 1024 10 16.0934 0 0
1:52 pm 13:52 Mostly Cloudy 46 7.8 34 1.1 63 63 VRB 3 6 30.24 1024 10 16.0934 0 0
2:52 pm 14:52 Mostly Cloudy 51 10.6 31 -0.6 46 46 NNW 13 20 30.25 1024 10 16.0934 0 0
3:52 pm 15:52 Partly Cloudy 50 10 29 -1.7 44 44 NNW 10 17 30.27 1025 10 16.0934 0 0
4:52 pm 16:52 Partly Cloudy 45 7.2 28 -2.2 52 52 NNE 5 7 30.27 1025 10 16.0934 0 0
5:52 pm 17:52 Mostly Cloudy 45 7.2 28 -2.2 52 52 WSW 3 6 30.29 1026 10 16.0934 0 0
6:52 pm 18:52 Mostly Cloudy 40 4.4 29 -1.7 65 65 S 3 6 30.32 1027 10 16.0934 0 0
7:52 pm 19:52 Mostly Cloudy 37 2.8 31 -0.6 79 79 S 7 11 30.35 1028 10 16.0934 0 0
8:52 pm 20:52 Clear 39 3.9 31 -0.6 73 73 Calm 30.37 1028 10 16.0934 0 0
9:52 pm 21:52 Mostly Cloudy 35 1.7 31 -0.6 85 85 Calm 30.38 1029 10 16.0934 0 0
10:52 pm 22:52 Mostly Clear 33 0.6 29 -1.7 85 85 N 3 6 30.4 1029 10 16.0934 0 0
11:52 pm 23:52 Mostly Clear 33 0.6 27 -2.8 78 78 NNE 3 6 30.4 1030 10 16.0934 0 0

Powered by AerisWeather